OBJECT C, 62265

Orbit data source: Space-Track

You're viewing an Uncataloged Satellite

Recently launched and/or uncataloged satellites may have evolving metadata. Metadata may include but not limited to: Owner, Maufacturer, Bus, Motor, and Mission.

OBJECT C, 62265 is a satellite owned by IRSA (IR) in LEO that was launched on Fri, 06 Dec 2024 UTC via an SIMORGH launch vehicle from the Semnan, Iran (SEM). Unknown objects in Earth's orbit typically refer to objects detected orbiting the Earth but have not yet been identified or cataloged. These objects could be anything from previously untracked satellites, spent rocket stages, debris from satellite collisions, or even natural meteoroids temporarily captured by Earth's gravity.

Not visible in the next 10 days
OBJECT C details
Identifier
62265, 2024-236C
Orbit
LEO
Last TLE update4 days ago
Origin
Flag of IRIRSA (IR / IRAN)
ManufacturerIEI
MissionDecayed spacecraft
Bus & MotorFAKHR, Unknown motor
Mass5 kg wet, 5 kg dry
Launch date (UTC)
2024-12-06 (2 months ago)
Launch vehicle
SIMORGH
Launch site
Semnan, Iran (SEM)
Object typeUnknown
Shape & HBRUnknown
Radar Cross SectionSmall (<0.1 m²)

Expand to show TLE details & history

TLE from 4 days ago
0 OBJECT C
1 62265U 24236C   25021.46258119  .08699274  10950-4  67855-3 0  9992
2 62265  58.5427 179.2943 0014353 266.2054  93.7422 16.39187091  7357
Epoch: 2025-01-21T11:06Z
Definitive object data (Epoch: 2025-01-21T11:06:07.014Z)
Latitude-0.00003°
Longitude-108.3034°
Altitude170.12 km
Speed7.805 km/s
True Right ascension11h 57m 10s
True Declination0° 00' 00"
Sunlit
Object was in full shadow at TLE epoch
Visualization observer readout
Observer readout values are unavailable because the object's trajectory could not be propagated. This is usually caused when the trajectory data is faulty or the object's orbit has decayed.
Visualization observer readout
Observer readout values are unavailable because the object's trajectory could not be propagated. This is usually caused when the trajectory data is faulty or the object's orbit has decayed.
Orbital elements
Apogee altitude176.749 km
Perigee altitude157.96 km
Semi-major axis6,545.491 km
Eccentricity0.0014353
Inclination58.5427°
RAAN179.2943°
Arg. of periapsis266.2054°
True anomaly93.9063°
Mean anomaly93.7422°
Eccentric anomaly93.82425°
Mean motion4.09855 °/min
BSTAR0.00067855
Orbital period87.84 mins
Loading maneuver chart data...
Loading historical data...
Loading historical data...
Loading historical data...
Loading historical data...
Loading historical data...
Loading historical data...
Loading historical data...
Other satellites on launch #236 in the year 2024 (2024-12-06 UTC)

OBJECT C Visibility forecast

Observer location: undefined°, undefined

OBJECT C is not visible in the next 10 days
Span
Click to sort rows by Start time (UTC) header in descending order
Start Az.
Max El. time (UTC)
Max El. Az.
Max El.
End time (UTC)
End Az.
|